Weather History for Danbury, CT

Change the Weather History Date:

Friday, May 10, 2013

  Actual Average Record
Temperature  
Mean Temperature 60 °F -  
Max Temperature 77 °F 68 °F 92 °F (1979)
Min Temperature 46 °F 44 °F 31 °F (1966)
Degree Days  
Heating Degree Days 4    
Growing Degree Days 10 (Base 50)    
Moisture  
Dew Point 50 °F    
Average Humidity 78    
Maximum Humidity 100    
Minimum Humidity 37    
Precipitation  
Precipitation 0.00 in - - ()
Sea Level Pressure  
Sea Level Pressure 29.96 in    
Wind  
Wind Speed 2 mph (SSW)    
Max Wind Speed 10 mph    
Max Gust Speed 16 mph    
Visibility 7 miles    
Events Fog , Rain    
Averages and records for this station are not official NWS values.
T = Trace of Precipitation, MM = Missing Value Source: NWS Daily Summary

Daily Weather History Graph

Daily Weather History Graph

Search for Another Location

Airport:

Trip Planner

Search our weather history database for the weather conditions in past years. The results will help you decide how hot, cold, wet, or windy it might be!

Date:

Astronomy

May. 10, 2013 Rise Set
Actual Time 5:40 AM EDT 8:01 PM EDT
Civil Twilight 5:09 AM EDT 8:32 PM EDT
Nautical Twilight 4:30 AM EDT 9:10 PM EDT
Astronomical Twilight 3:48 AM EDT 9:53 PM EDT
Moon 6:02 AM EDT (5/10) 8:48 PM EDT (5/10)
Length of Visible Light 15h 23m
Length of Day
14h 21m
New Moon, 0% of the Moon is Illuminated
May 10
New Moon
May 18
First Quarter
May 25
Full
May 31
Last Quarter
Jun 8
New

Hourly Weather History & Observations

Time (EDT) Temp. Dew Point Humidity Pressure Visibility Wind Dir Wind Speed Gust Speed Precip Events Conditions
12:53 AM 52.0 °F 50.0 °F 93% 29.95 in 10.0 mi SW 3.5 mph - N/A   Clear
1:53 AM 51.1 °F 48.9 °F 92% 29.94 in 10.0 mi Calm Calm - N/A   Clear
2:53 AM 50.0 °F 48.0 °F 93% 29.95 in 5.0 mi Calm Calm - N/A   Clear
2:55 AM 48.2 °F 48.2 °F 100% 29.95 in 1.5 mi Calm Calm - N/A   Clear
2:59 AM 48.2 °F 46.4 °F 93% 29.95 in 1.0 mi Calm Calm - N/A   Mist
3:05 AM 48.2 °F 46.4 °F 93% 29.95 in 2.5 mi Calm Calm - N/A   Partly Cloudy
3:17 AM 48.2 °F 46.4 °F 93% 29.96 in 1.0 mi Calm Calm - N/A   Clear
3:30 AM 48.2 °F 46.4 °F 93% 29.96 in 2.5 mi Calm Calm - N/A   Clear
3:37 AM 48.2 °F 46.4 °F 93% 29.96 in 9.0 mi Calm Calm - N/A   Clear
3:53 AM 48.0 °F 46.0 °F 93% 29.96 in 10.0 mi Calm Calm - N/A   Clear
4:34 AM 46.4 °F 44.6 °F 93% 29.96 in 8.0 mi Calm Calm - N/A   Partly Cloudy
4:53 AM 48.0 °F 46.0 °F 93% 29.96 in 7.0 mi Calm Calm - N/A   Scattered Clouds
4:59 AM 48.2 °F 46.4 °F 93% 29.96 in 2.0 mi Calm Calm - N/A   Mostly Cloudy
5:01 AM 46.4 °F 46.4 °F 100% 29.96 in 1.0 mi Calm Calm - N/A   Mostly Cloudy
5:08 AM 48.2 °F 46.4 °F 93% 29.96 in 0.2 mi Calm Calm - N/A Fog Fog
5:53 AM 46.9 °F 45.0 °F 93% 29.97 in 0.2 mi Calm Calm - N/A Fog Fog
6:32 AM 48.2 °F 46.4 °F 93% 30.00 in 1.2 mi Calm Calm - N/A   Mostly Cloudy
6:34 AM 48.2 °F 46.4 °F 93% 30.00 in 4.0 mi Calm Calm - N/A   Mostly Cloudy
6:53 AM 50.0 °F 48.0 °F 93% 29.99 in 1.5 mi Calm Calm - N/A   Mostly Cloudy
7:00 AM 50.0 °F 50.0 °F 100% 30.00 in 0.5 mi Calm Calm - N/A Fog Fog
7:21 AM 51.8 °F 51.8 °F 100% 30.00 in 10.0 mi Calm Calm - N/A   Clear
7:53 AM 55.9 °F 54.0 °F 93% 30.00 in 8.0 mi Calm Calm - N/A   Clear
8:53 AM 64.0 °F 55.9 °F 75% 30.00 in 10.0 mi Calm Calm - N/A   Clear
9:53 AM 69.1 °F 53.1 °F 57% 29.99 in 10.0 mi Calm Calm - N/A   Clear
10:53 AM 71.1 °F 54.0 °F 55% 29.99 in 10.0 mi Variable 4.6 mph - N/A   Clear
11:53 AM 72.0 °F 52.0 °F 49% 29.98 in 10.0 mi WSW 5.8 mph - 0.00 in   Clear
12:53 PM 73.9 °F 53.1 °F 48% 29.97 in 10.0 mi SW 10.4 mph 16.1 mph 0.00 in Rain Light Rain
1:53 PM 75.9 °F 48.0 °F 37% 29.96 in 10.0 mi WSW 9.2 mph - 0.00 in   Clear
2:53 PM 75.9 °F 52.0 °F 43% 29.95 in 10.0 mi SW 8.1 mph - 0.00 in   Clear
3:53 PM 75.9 °F 52.0 °F 43% 29.94 in 10.0 mi WSW 9.2 mph - N/A   Clear
4:53 PM 75.9 °F 51.1 °F 42% 29.93 in 10.0 mi WSW 6.9 mph - N/A   Clear
5:53 PM 75.0 °F 53.1 °F 46% 29.93 in 10.0 mi South 9.2 mph - N/A   Clear
6:53 PM 72.0 °F 52.0 °F 49% 29.93 in 10.0 mi South 9.2 mph - N/A   Partly Cloudy
7:53 PM 69.1 °F 53.1 °F 57% 29.94 in 10.0 mi South 8.1 mph - N/A   Clear
8:53 PM 66.0 °F 53.1 °F 63% 29.94 in 10.0 mi South 6.9 mph - N/A   Clear
9:53 PM 64.0 °F 53.1 °F 67% 29.94 in 10.0 mi South 6.9 mph - N/A   Clear
10:53 PM 63.0 °F 53.1 °F 70% 29.92 in 10.0 mi South 6.9 mph - N/A   Clear
11:53 PM 62.1 °F 53.1 °F 72% 29.90 in 10.0 mi SSW 4.6 mph - N/A   Clear